Barcelona, Spain

8:49 AM CEST en Junio 24, 2018 (GMT +0200)
El Prat

Tiempo Historia de LEBL - Junio, 2018

Change the Weather History Date:

Jueves, Junio 14, 2018

  Actual Average Record
Temperature  
Temperatura media 71 ° F -  
Temperatura máxima 77 ° F 77 ° F 88 ° F (2014)
Temperatura mínima 65 ° F 65 ° F 51 ° F (1999)
Cooling Degree Days 6    
Growing Degree Days 21 (Base 50)    
Moisture  
Punto de rocío 59 ° F    
Average Humidity 65    
Maximum Humidity 83    
Minimum Humidity 33    
Precipitación  
Precipitación 0.00 pul 0.04 pul - ()
Presión al nivel del mar  
Presión al nivel del mar 29.93 pul    
Viento  
Velocidad del viento 8 mph ()    
Velocidad máxima del viento 17 mph    
Max Gust Speed 30 mph    
Visibilidad 9.4 Millas    
Eventos      
Averages and records for this station are not official NWS values.
T = Trace of Precipitation, MM = Missing Value Source: Averaged Metar Reports

Daily Weather History Graph

Daily Weather History Graph

Search for Another Location

Airport or City:

Astronomía

Jun. 14, 2018 Salida Puesta
Hora real 6:18 AM CEST 9:26 PM CEST
Crepúsculo civil 5:44 AM CEST 9:59 PM CEST
Crepúsculo náutico 5:01 AM CEST 10:43 PM CEST
Crepúsculo astronómico 4:09 AM CEST 11:34 PM CEST
Luna 7:01 AM CEST (6/14) 10:10 PM CEST (6/14)
Horas de luz 16h 15m
Horas de luz
15h 08m
Luna nueva, 1% of the Moon is Illuminated
Jun 14
Luna nueva
Jun 20
Cuarto creciente
Jun 28
Luna llena
Jul 6
Cuarto menguante
Jul 13
Nueva

Hourly Weather History & Observations

Hora (CEST) Temp. Punto de rocío Humedad Presión Visibilidad Wind Dir Velocidad del viento Velocidad de ráfagas Precip Eventos Condiciones
12:00 AM 72 ° F 62 ° F 62% 29.94 pul 16 mi ENE 4.6 mph - -  
12:00 AM 71.6 ° F 62.6 ° F 73% 29.92 pul 6.2 mi NNE 3.5 mph - N/A   Parcialmente nublado
12:30 AM 71.6 ° F 60.8 ° F 69% 29.92 pul - Norte 3.5 mph - N/A   Despejado
1:00 AM 71 ° F 61 ° F 62% 29.93 pul 12 mi Norte 8.1 mph - -  
1:00 AM 69.8 ° F 60.8 ° F 73% 29.92 pul - NNE 4.6 mph - N/A   Despejado
1:30 AM 68.0 ° F 60.8 ° F 78% 29.92 pul 6.2 mi NNO 5.8 mph - N/A   Parcialmente nublado
2:00 AM 69 ° F 60 ° F 65% 29.94 pul 16 mi Norte 6.9 mph - -   Nubes dispersas
2:00 AM 68.0 ° F 60.8 ° F 78% 29.92 pul 6.2 mi Variable 2.3 mph - N/A   Parcialmente nublado
2:30 AM 68.0 ° F 59.0 ° F 73% 29.92 pul 6.2 mi Variable 1.2 mph - N/A   Parcialmente nublado
3:00 AM 67 ° F 59 ° F 68% 29.92 pul 12 mi Norte 8.1 mph - -  
3:00 AM 66.2 ° F 59.0 ° F 78% 29.92 pul 6.2 mi NNO 8.1 mph - N/A   Parcialmente nublado
3:30 AM 66.2 ° F 59.0 ° F 78% 29.92 pul 6.2 mi NNO 8.1 mph - N/A   Parcialmente nublado
4:00 AM 66.2 ° F 59.0 ° F 78% 29.92 pul 6.2 mi NNO 10.4 mph - N/A   Parcialmente nublado
4:30 AM 66.2 ° F 57.2 ° F 73% 29.92 pul - NNO 9.2 mph - N/A   Despejado
5:00 AM 66 ° F 55 ° F 58% 29.91 pul 16 mi Norte 10.4 mph - -   Despejado
5:00 AM 66.2 ° F 55.4 ° F 68% 29.92 pul - NNO 9.2 mph - N/A   Despejado
5:30 AM 66.2 ° F 53.6 ° F 64% 29.89 pul - NNO 9.2 mph - N/A   Despejado
6:00 AM 64.4 ° F 53.6 ° F 68% 29.89 pul - NNO 9.2 mph - N/A   Despejado
6:30 AM 64.4 ° F 51.8 ° F 64% 29.89 pul - NNO 12.7 mph - N/A   Despejado
7:00 AM 66 ° F 52 ° F 50% 29.91 pul 19 mi Norte 12.7 mph - -  
7:00 AM 64.4 ° F 51.8 ° F 64% 29.89 pul - NNO 12.7 mph - N/A   Despejado
7:30 AM 64.4 ° F 51.8 ° F 64% 29.89 pul - NNO 15.0 mph - N/A   Despejado
8:00 AM 67 ° F 52 ° F 47% 29.92 pul 19 mi Norte 13.8 mph - -   Nubes dispersas
8:00 AM 66.2 ° F 51.8 ° F 60% 29.92 pul - NNO 17.3 mph 29.9 mph N/A   Despejado
8:30 AM 66.2 ° F 51.8 ° F 60% 29.92 pul - NNO 16.1 mph 29.9 mph N/A   Despejado
9:00 AM 69 ° F 52 ° F 44% 29.93 pul 19 mi Norte 16.1 mph - -  
9:00 AM 68.0 ° F 51.8 ° F 56% 29.92 pul - NNO 16.1 mph - N/A   Despejado
9:30 AM 69.8 ° F 51.8 ° F 53% 29.92 pul 6.2 mi NNO 12.7 mph - N/A   Parcialmente nublado
10:00 AM 73 ° F 52 ° F 36% 29.94 pul 17 mi Norte 13.8 mph - -  
10:00 AM 69.8 ° F 51.8 ° F 53% 29.92 pul 6.2 mi NNO 12.7 mph - N/A   Parcialmente nublado
10:30 AM 71.6 ° F 51.8 ° F 50% 29.92 pul 6.2 mi NNO 9.2 mph - N/A   Parcialmente nublado
11:00 AM 76 ° F 52 ° F 33% 29.95 pul 19 mi Norte 6.9 mph - -   Nubes dispersas
11:00 AM 75.2 ° F 53.6 ° F 47% 29.95 pul 6.2 mi NNO 5.8 mph - N/A   Parcialmente nublado
11:30 AM 73.4 ° F 57.2 ° F 57% 29.95 pul 6.2 mi SE 5.8 mph - N/A   Parcialmente nublado
12:00 PM 73.4 ° F 59.0 ° F 61% 29.95 pul 6.2 mi SSE 8.1 mph - N/A   Parcialmente nublado
12:30 PM 73.4 ° F 60.8 ° F 65% 29.95 pul 6.2 mi SSE 9.2 mph - N/A   Parcialmente nublado
1:00 PM 75 ° F 61 ° F 52% 29.96 pul 14 mi SSE 9.2 mph - -  
1:00 PM 73.4 ° F 60.8 ° F 65% 29.95 pul 6.2 mi SSE 9.2 mph - N/A   Parcialmente nublado
1:30 PM 73.4 ° F 62.6 ° F 69% 29.95 pul 6.2 mi SE 11.5 mph - N/A   Parcialmente nublado
2:00 PM 76 ° F 64 ° F 57% 29.95 pul 12 mi Sur 12.7 mph - -   Nubes dispersas
2:00 PM 73.4 ° F 64.4 ° F 73% 29.95 pul 6.2 mi Sur 13.8 mph - N/A   Parcialmente nublado
2:30 PM 75.2 ° F 62.6 ° F 65% 29.95 pul 6.2 mi Sur 12.7 mph - N/A   Parcialmente nublado
3:00 PM 75 ° F 62 ° F 54% 29.95 pul 13 mi Sur 11.5 mph - -  
3:00 PM 73.4 ° F 60.8 ° F 65% 29.95 pul 6.2 mi SSE 13.8 mph - N/A   Parcialmente nublado
3:30 PM 75.2 ° F 62.6 ° F 65% 29.95 pul 6.2 mi SSE 12.7 mph - N/A   Parcialmente nublado
4:00 PM 75 ° F 62 ° F 55% 29.94 pul 14 mi Sur 11.5 mph - -  
4:00 PM 73.4 ° F 62.6 ° F 69% 29.95 pul 6.2 mi SSE 12.7 mph - N/A   Parcialmente nublado
4:30 PM 73.4 ° F 62.6 ° F 69% 29.92 pul 6.2 mi Sur 12.7 mph - N/A   Parcialmente nublado
5:00 PM 75 ° F 63 ° F 58% 29.93 pul 11 mi Sur 11.5 mph - -   Nubes dispersas
5:00 PM 73.4 ° F 62.6 ° F 69% 29.92 pul 6.2 mi Sur 12.7 mph - N/A   Parcialmente nublado
5:30 PM 73.4 ° F 64.4 ° F 73% 29.92 pul 6.2 mi Sur 12.7 mph - N/A   Parcialmente nublado
6:00 PM 74 ° F 65 ° F 66% 29.92 pul 11 mi Sur 11.5 mph - -  
6:00 PM 73.4 ° F 64.4 ° F 73% 29.92 pul 6.2 mi Sur 10.4 mph - N/A   Parcialmente nublado
6:30 PM 73.4 ° F 64.4 ° F 73% 29.92 pul 6.2 mi Sur 9.2 mph - N/A   Parcialmente nublado
7:00 PM 74 ° F 66 ° F 70% 29.92 pul 19 mi Sur 9.2 mph - -  
7:00 PM 71.6 ° F 64.4 ° F 78% 29.92 pul 6.2 mi Sur 8.1 mph - N/A   Parcialmente nublado
7:30 PM 71.6 ° F 66.2 ° F 83% 29.92 pul 6.2 mi Sur 8.1 mph - N/A   Parcialmente nublado
8:00 PM 74 ° F 64 ° F 63% 29.94 pul 12 mi SO 8.1 mph - -   Nubes dispersas
8:00 PM 71.6 ° F 64.4 ° F 78% 29.92 pul 6.2 mi Sur 6.9 mph - N/A   Parcialmente nublado
8:30 PM 71.6 ° F 64.4 ° F 78% 29.92 pul 6.2 mi Sur 5.8 mph - N/A   Parcialmente nublado
9:00 PM 72 ° F 64 ° F 71% 29.95 pul 11 mi SO 4.6 mph - -  
9:00 PM 69.8 ° F 64.4 ° F 83% 29.95 pul 6.2 mi Sur 4.6 mph - N/A   Parcialmente nublado
9:30 PM 69.8 ° F 62.6 ° F 78% 29.95 pul 6.2 mi SSO 4.6 mph - N/A   Parcialmente nublado
10:00 PM 71 ° F 62 ° F 67% 29.96 pul 19 mi SO 5.8 mph - -  
10:00 PM 69.8 ° F 62.6 ° F 78% 29.95 pul 6.2 mi SSO 6.9 mph - N/A   Parcialmente nublado
10:30 PM 69.8 ° F 62.6 ° F 78% 29.98 pul 6.2 mi SO 8.1 mph - N/A   Parcialmente nublado
11:00 PM 69.8 ° F 60.8 ° F 73% 29.98 pul 6.2 mi SSO 4.6 mph - N/A   Parcialmente nublado
11:30 PM 69.8 ° F 60.8 ° F 73% 29.98 pul 6.2 mi SSO 4.6 mph - N/A   Parcialmente nublado